Printer-friendly version

IAU Minor Planet Center

Minor Planet Center

MPEC 2006-X34 : 2006 XF1

The following Minor Planet Electronic Circular may be linked-to from your own Web pages, but must not otherwise be redistributed electronically.

A form allowing access to any MPEC is at the bottom of this page.


Read MPEC 2006-X33 Read MPEC 2006-X35


M.P.E.C. 2006-X34                                Issued 2006 Dec. 11, 22:25 UT

     The Minor Planet Electronic Circulars contain information on unusual
         minor planets and routine data on comets.  They are published
   on behalf of Commission 20 of the International Astronomical Union by the
          Minor Planet Center, Smithsonian Astrophysical Observatory,
                          Cambridge, MA 02138, U.S.A.

             Prepared using the Tamkin Foundation Computer Network

                              MPC@CFA.HARVARD.EDU
          URL http://cfa-www.harvard.edu/iau/mpc.html  ISSN 1523-6714

                                   2006 XF1

Observations:
     K06X01F* C2006 12 10.18097 01 49 46.55 +47 30 43.5          18.9   EX034704
     K06X01F  C2006 12 10.19287 01 49 49.61 +47 29 30.3          19.4   EX034704
     K06X01F  C2006 12 10.20484 01 49 53.01 +47 28 17.2          19.4   EX034704
     K06X01F  C2006 12 10.21674 01 49 56.11 +47 27 04.5          19.2   EX034704
     K06X01F  C2006 12 11.11599 01 54 00.50 +45 57 19.2          19.1   EX034704
     K06X01F  C2006 12 11.12810 01 54 03.50 +45 56 07.9          19.1   EX034704
     K06X01F  C2006 12 11.14020 01 54 06.51 +45 54 57.4          19.1   EX034704
     K06X01F  C2006 12 11.15229 01 54 09.46 +45 53 46.7          19.1   EX034704
     K06X01F  C2006 12 11.16440 01 54 12.51 +45 52 35.0          19.5   EX034704
     K06X01F  C2006 12 11.18099 01 54 16.60 +45 50 57.2          19.1   EX034704
     K06X01F  C2006 12 11.19327 01 54 19.62 +45 49 44.7          19.2   EX034704
     K06X01F  C2006 12 11.20538 01 54 22.62 +45 48 33.7          19.6   EX034704
     K06X01F  C2006 12 11.21742 01 54 25.61 +45 47 22.0          19.5   EX034704
     K06X01F  C2006 12 11.22947 01 54 28.52 +45 46 10.9          19.4   EX034704
     K06X01F  C2006 12 11.86239 01 57 08.70 +44 44 53.9                 EX034J95
     K06X01F  C2006 12 11.86478 01 57 09.31 +44 44 39.4                 EX034J95
     K06X01F  C2006 12 11.87009 01 57 10.57 +44 44 09.6                 EX034J95
     K06X01F  C2006 12 11.87169 01 57 10.94 +44 44 00.7          19.2 R EX034J95
     K06X01F  C2006 12 11.88526 01 57 13.77 +44 42 43.8          19.0 R EX034473
     K06X01F  C2006 12 11.88786 01 57 14.37 +44 42 29.2          19.1 R EX034473
     K06X01F  C2006 12 11.89047 01 57 14.97 +44 42 14.4          18.9 R EX034473
     K06X01F  C2006 12 11.90366 01 57 18.15 +44 40 58.9          18.9 R EX034473

Observer details:
473 Remanzacco.  Observers G. Sostero, E. Guido.  0.45-m f/4.4 Newtonian
    reflector + CCD.
704 Lincoln Laboratory ETS, New Mexico.  Observers M. Bezpalko, D. Torres,
    R. Kracke, G. Spitz, J. Kistler.  Measurers J. Stuart, S. Scruggs.  1.0-m
    f/2.15 reflector + CCD.
J95 Great Shefford.  Observer P. Birtwhistle.  0.40-m f/6.0 Schmidt-Cassegrain
    + CCD.

Orbital elements:
2006 XF1                                                 Earth MOID = 0.2746 AU
Epoch 2006 Sept. 22.0 TT = JDT 2454000.5                MPC
M   3.24416              (2000.0)            P               Q
n   0.63994333     Peri.   45.95280     +0.55172490     +0.65044733
a   1.3336495      Node   265.18532     -0.83255849     +0.46664302
e   0.5275513      Incl.   31.59295     +0.04945692     +0.59930173
P   1.54           H   19.2           G   0.15           U   9
Residuals in seconds of arc
061210 704  0.4+  0.3+    061211 704  0.3+  0.1+    061211 J95  0.1+  0.0
061210 704  1.0-  0.2-    061211 704  0.1+  0.1+    061211 J95  0.0   0.3+
061210 704  0.8+  0.1-    061211 704  0.0   0.0     061211 473  0.3+  0.2-
061210 704  0.2-  0.0     061211 704  0.0   0.4+    061211 473  0.1+  0.2+
061211 704  0.2+  0.3-    061211 704  0.2+  0.2-    061211 473  0.1-  0.4+
061211 704  0.1+  0.5-    061211 704  0.6-  0.1-    061211 473  0.6+  0.8+
061211 704  0.2+  0.1+    061211 J95  0.4-  0.1+
061211 704  0.3-  0.5+    061211 J95  0.1+  0.7-

Ephemeris:
2006 XF1                 a,e,i = 1.33, 0.53, 32                  q = 0.6301
Date    TT    R. A. (2000) Decl.     Delta      r     Elong.  Phase     V
2006 12 11    01 53.49   +46 08.7    0.365    1.267   134.2    33.9    18.9
2006 12 21    02 25.45   +32 41.5    0.466    1.347   133.3    32.1    19.5
2006 12 31    02 46.13   +24 17.0    0.594    1.422   127.0    33.5    20.2
2007 01 10    03 02.98   +19 08.3    0.739    1.493   119.5    35.0    20.9
2007 01 20    03 18.43   +15 58.3    0.896    1.559   112.0    35.8    21.4
2007 01 30    03 33.49   +14 01.2    1.059    1.620   104.8    36.0    21.8

Timothy B. Spahr             (C) Copyright 2006 MPC           M.P.E.C. 2006-X34

Read MPEC 2006-X33 Read MPEC 2006-X35


MPEC number:

Enter an
MPEC number in one of the following forms:
  • 1997-B01 (the full form)
  • J97B01 (the packed version of the full form)
  • B01 (the abbreviated form)

Valid HTML 4.01!